Location: Oberwangen
(47.4286°N, 8.9679°E)
Time: 10:28:19
(UTC+00:00)

Cosmos 1816 Rocket - Pass Details

Date: 17 October 2021
Orbit: 952 x 998 km, 82.9° (Epoch: 08 December)

Event Time Altitude Azimuth Distance (km) Brightness Sun altitude
Rises 20:38:12 0° 347° (NNW) 3,642 8.1 -40.5°
Reaches altitude 10° 20:40:45 10° 343° (NNW) 2,695 7.3 -40.9°
Enters shadow 20:43:17 26° 334° (NNW) 1,811 6.2 -41.2°
